Weather reports worldwide

Advertisment
Capo Bellavista, Italy (16550): temperature & dewpoint: 20.05.2019 02:00:00 - 26.05.2019 02:00:00 (CEST)Capo Bellavista, Italy (16550): wind speed: 20.05.2019 02:00:00 - 26.05.2019 02:00:00 (CEST)Capo Bellavista, Italy (16550): wind direction: 20.05.2019 02:00:00 - 26.05.2019 02:00:00 (CEST)Capo Bellavista, Italy (16550): reduced air pressure: 20.05.2019 02:00:00 - 26.05.2019 02:00:00 (CEST)Capo Bellavista, Italy (16550): visibility: 20.05.2019 02:00:00 - 26.05.2019 02:00:00 (CEST)Capo Bellavista, Italy (16550): sunshine duration: 20.05.2019 02:00:00 - 26.05.2019 02:00:00 (CEST)
Date & Time tt [°C] td [°C] ff [km/h] ff [kn] dd ppp [hPa] vv [km] sd [min]
26.05.2019 02:00:00 - - - - - - - -
26.05.2019 01:00:00 14,8 13,5 15 8 ESE 1012,8 10 -
26.05.2019 00:00:00 14,8 13,5 13 7 SE 1013,0 10 -
25.05.2019 23:00:00 15,0 13,7 11 6 WSW 1012,9 10 -
25.05.2019 22:00:00 15,2 13,9 18 10 NE 1012,6 0,5 -
25.05.2019 21:00:00 15,8 14,5 16 9 SE 1012,5 0,5 -
25.05.2019 20:00:00 15,4 14,1 22 12 SE 1012,1 0,5 0
25.05.2019 19:00:00 15,6 14,3 21 11 NE 1012,3 0,5 0
25.05.2019 18:00:00 15,6 14,3 11 6 E 1012,6 0,5 0
25.05.2019 17:00:00 15,4 14,4 24 13 E 1012,6 0,5 0
25.05.2019 16:00:00 15,6 14,6 28 15 NE 1012,8 4,0 0
25.05.2019 15:00:00 16,4 14,8 21 11 E 1013,4 4,0 0
25.05.2019 14:00:00 18,8 15,7 18 10 E 1013,6 20 0
25.05.2019 13:00:00 21,2 13,8 18 10 ESE 1013,5 20 0
25.05.2019 12:00:00 20,8 14,6 18 10 E 1013,5 20 6
25.05.2019 11:00:00 18,8 13,4 11 6 ENE 1013,6 25 0
25.05.2019 10:00:00 16,4 10,6 9 5 NNW 1013,9 25 0
25.05.2019 09:00:00 16,0 9,4 11 6 NNW 1013,6 20 0
25.05.2019 08:00:00 14,8 8,1 16 9 NW 1013,5 20 0
25.05.2019 07:00:00 14,8 9,6 8 4 WNW 1013,4 20 -
25.05.2019 06:00:00 15,0 9,6 13 7 NW 1012,9 20 -
25.05.2019 05:00:00 15,8 14,3 4 2 S 1013,0 20 -
25.05.2019 04:00:00 16,0 14,7 9 5 S 1012,8 20 -
25.05.2019 03:00:00 16,0 14,4 11 6 SW 1013,0 20 -
25.05.2019 02:00:00 16,2 13,3 9 5 S 1013,7 20 -
25.05.2019 01:00:00 16,2 14,6 8 4 W 1013,7 20 -
25.05.2019 00:00:00 16,2 14,2 11 6 NW 1013,6 20 -
24.05.2019 23:00:00 17,0 11,5 16 9 W 1013,7 10 -
24.05.2019 22:00:00 16,8 15,2 18 10 SW 1013,8 10 -
24.05.2019 21:00:00 17,2 16,2 16 9 SSW 1013,5 4,0 -
24.05.2019 20:00:00 18,0 17,2 13 7 SSW 1013,4 10 -
24.05.2019 19:00:00 19,0 17,3 15 8 SSW 1013,6 10 30
24.05.2019 18:00:00 21,6 18,0 9 5 S 1013,4 10 54
24.05.2019 17:00:00 23,0 17,7 9 5 SE 1014,0 10 60
24.05.2019 16:00:00 23,4 14,1 15 8 SE 1014,3 20 60
24.05.2019 15:00:00 24,2 11,2 13 7 SE 1014,1 20 60
24.05.2019 14:00:00 24,6 6,4 15 8 SE 1014,1 20 60
24.05.2019 13:00:00 24,8 7,0 11 6 SE 1014,5 20 54
24.05.2019 12:00:00 25,2 8,7 8 4 SSE 1015,1 20 42
24.05.2019 11:00:00 23,0 7,5 9 5 NNW 1015,2 50 30
24.05.2019 10:00:00 21,0 9,3 11 6 SSE 1015,3 20 54
24.05.2019 09:00:00 20,0 11,5 11 6 SE 1015,4 20 60
24.05.2019 08:00:00 18,0 10,9 0 0 N 1015,5 20 60
24.05.2019 07:00:00 16,6 7,5 0 0 N 1015,6 20 60
24.05.2019 06:00:00 15,4 10,4 9 5 NNW 1017,0 20 -
24.05.2019 05:00:00 15,6 10,4 8 4 NW 1017,1 20 -
24.05.2019 04:00:00 15,6 10,2 9 5 NNW 1017,0 20 -
24.05.2019 03:00:00 15,8 10,1 9 5 N 1017,0 20 -
24.05.2019 02:00:00 15,8 10,6 8 4 NW 1016,9 20 -
24.05.2019 01:00:00 15,8 12,4 9 5 NNW 1017,0 20 -
24.05.2019 00:00:00 16,0 14,2 11 6 NNW 1017,0 20 -
23.05.2019 23:00:00 16,0 12,4 9 5 NW 1017,0 20 -
23.05.2019 22:00:00 16,0 13,7 9 5 NNW 1017,0 20 -
23.05.2019 21:00:00 16,4 14,8 8 4 SW 1016,7 20 -
23.05.2019 20:00:00 18,2 14,9 11 6 S 1016,4 20 60
23.05.2019 19:00:00 20,0 14,8 11 6 S 1017,3 20 60
23.05.2019 18:00:00 18,8 14,3 22 12 SSW 1016,5 20 60
23.05.2019 17:00:00 22,0 15,1 9 5 SSE 1016,7 20 60
23.05.2019 16:00:00 22,2 15,3 11 6 SSE 1017,0 20 60
23.05.2019 15:00:00 - - - - - - - -
23.05.2019 14:00:00 23,0 13,5 11 6 S 1017,7 20 60
23.05.2019 13:00:00 24,0 13,0 11 6 SSE 1017,9 20 60
23.05.2019 12:00:00 24,0 12,3 8 4 SSE 1017,9 20 60
23.05.2019 11:00:00 21,0 12,7 13 7 S 1017,5 30 60
23.05.2019 10:00:00 19,8 10,8 13 7 SSE 1017,3 20 60
23.05.2019 09:00:00 19,0 6,2 11 6 SSE 1016,9 20 60
23.05.2019 08:00:00 19,0 6,8 13 7 SE 1016,7 20 60
23.05.2019 07:00:00 15,6 3,7 9 5 NNW 1016,3 20 12
23.05.2019 06:00:00 15,6 3,7 24 13 NNW 1016,7 20 -
23.05.2019 05:00:00 16,0 4,1 26 14 NNW 1016,6 20 -
23.05.2019 04:00:00 16,0 3,8 28 15 NW 1016,9 20 -
23.05.2019 03:00:00 16,0 3,1 15 8 NNW 1016,9 20 -
23.05.2019 02:00:00 17,0 3,3 18 10 NW 1016,9 25 -
23.05.2019 01:00:00 16,4 4,4 29 16 NW 1016,8 10 -
23.05.2019 00:00:00 16,4 6,8 26 14 NW 1016,9 10 -
22.05.2019 23:00:00 16,0 7,5 22 12 NW 1016,9 20 -
22.05.2019 22:00:00 15,4 12,9 15 8 NW 1016,4 20 -
22.05.2019 21:00:00 15,8 14,8 15 8 SW 1015,9 25 -
22.05.2019 20:00:00 17,4 15,2 22 12 SSW 1015,8 20 60
22.05.2019 19:00:00 18,2 14,1 24 13 SSW 1015,7 20 60
22.05.2019 18:00:00 18,6 14,1 24 13 SSW 1016,1 30 48
22.05.2019 17:00:00 17,8 13,7 26 14 SSW 1016,3 20 12
22.05.2019 16:00:00 17,6 13,3 24 13 SSW 1016,7 20 6
22.05.2019 15:00:00 21,0 13,7 15 8 SSW 1016,5 20 60
22.05.2019 14:00:00 21,6 14,7 18 10 S 1016,5 30 60
22.05.2019 13:00:00 22,0 12,6 15 8 S 1016,7 20 60
22.05.2019 12:00:00 23,6 11,0 9 5 S 1016,4 20 60
22.05.2019 11:00:00 22,6 10,1 9 5 SE 1016,2 20 60
22.05.2019 10:00:00 20,6 8,3 13 7 WNW 1016,3 20 60
22.05.2019 09:00:00 17,0 7,3 18 10 SSW 1016,4 20 60
22.05.2019 08:00:00 15,6 2,9 13 7 WSW 1016,0 20 60
22.05.2019 07:00:00 15,8 1,0 11 6 WSW 1015,9 20 18
22.05.2019 06:00:00 15,2 0,6 16 9 WNW 1015,8 20 -
22.05.2019 05:00:00 15,0 2,0 24 13 NW 1015,8 30 -
22.05.2019 04:00:00 16,0 0,7 13 7 NW 1015,7 20 -
22.05.2019 03:00:00 15,8 1,6 22 12 NW 1015,8 20 -
22.05.2019 02:00:00 16,4 2,8 24 13 NW 1015,7 20 -
22.05.2019 01:00:00 17,0 3,9 24 13 NW 1015,7 20 -
22.05.2019 00:00:00 17,0 4,4 24 13 NW 1015,7 20 -
21.05.2019 23:00:00 18,0 4,9 21 11 NNW 1015,6 20 -
21.05.2019 22:00:00 18,6 6,7 13 7 NW 1014,8 20 -
21.05.2019 21:00:00 19,2 5,1 15 8 N 1014,5 30 6
21.05.2019 20:00:00 19,4 5,9 15 8 ENE 1014,4 20 60
21.05.2019 19:00:00 20,0 7,2 16 9 ENE 1013,9 20 60
21.05.2019 18:00:00 19,0 9,8 21 11 NE 1014,1 20 60
21.05.2019 17:00:00 18,8 14,4 21 11 NE 1013,8 20 60
21.05.2019 16:00:00 19,0 16,3 18 10 NE 1013,8 20 48
21.05.2019 15:00:00 19,0 14,6 28 15 ENE 1013,8 20 54
21.05.2019 14:00:00 20,8 13,9 24 13 ENE 1013,7 20 60
21.05.2019 13:00:00 20,2 14,2 28 15 NE 1013,7 20 60
21.05.2019 12:00:00 21,0 11,9 28 15 NE 1013,5 30 60
21.05.2019 11:00:00 23,0 7,3 13 7 ESE 1013,2 20 60
21.05.2019 10:00:00 21,0 8,6 13 7 NE 1013,2 20 60
21.05.2019 09:00:00 17,8 8,7 11 6 W 1012,9 20 60
21.05.2019 08:00:00 15,4 7,2 11 6 WSW 1013,0 20 60
21.05.2019 07:00:00 14,0 6,6 16 9 NW 1012,8 20 -
21.05.2019 06:00:00 14,8 6,9 15 8 W 1012,7 20 -
21.05.2019 05:00:00 14,2 6,5 21 11 WNW 1012,8 20 -
21.05.2019 04:00:00 14,6 6,9 29 16 WNW 1012,8 20 -
21.05.2019 03:00:00 14,8 6,6 22 12 W 1012,7 20 -
21.05.2019 02:00:00 15,0 6,8 18 10 W 1013,1 20 -
21.05.2019 01:00:00 15,2 6,0 22 12 W 1013,7 20 -
21.05.2019 00:00:00 15,2 6,0 26 14 WNW 1013,5 20 -
20.05.2019 23:00:00 16,0 7,2 13 7 S 1013,2 20 -
20.05.2019 22:00:00 16,0 5,6 15 8 NNW 1012,6 20 -
20.05.2019 21:00:00 16,6 5,9 18 10 NW 1011,2 20 -
20.05.2019 20:00:00 17,4 6,9 31 17 W 1011,0 10 36
20.05.2019 19:00:00 16,6 7,0 15 8 NW 1011,2 10 0
20.05.2019 18:00:00 16,8 7,2 34 18 WNW 1011,1 16 0
20.05.2019 17:00:00 18,0 7,7 28 15 W 1010,8 20 18
20.05.2019 16:00:00 19,0 8,4 31 17 WNW 1010,3 20 36
20.05.2019 15:00:00 18,8 7,6 22 12 WNW 1009,8 20 0
20.05.2019 14:00:00 20,6 7,6 24 13 W 1009,6 20 30
20.05.2019 13:00:00 18,4 6,6 15 8 NNW 1009,5 20 24
20.05.2019 12:00:00 21,8 6,9 15 8 N 1008,9 20 60
20.05.2019 11:00:00 23,0 6,3 15 8 SE 1008,5 20 60
20.05.2019 10:00:00 18,2 4,4 9 5 NE 1008,7 20 60
20.05.2019 09:00:00 16,2 3,8 9 5 NNW 1008,7 30 60
20.05.2019 08:00:00 14,0 5,7 16 9 SW 1008,8 20 12
20.05.2019 07:00:00 13,2 6,0 22 12 WNW 1008,0 30 0
20.05.2019 06:00:00 13,4 8,8 21 11 WSW 1007,9 20 -
20.05.2019 05:00:00 13,4 8,0 2 1 WSW 1008,0 30 -
20.05.2019 04:00:00 13,8 8,4 28 15 WSW 1007,8 20 -
20.05.2019 03:00:00 14,8 7,1 26 14 WSW 1008,5 10 -
20.05.2019 02:00:00 15,0 6,1 21 11 W 1008,9 20 -

tt = temperature
td = dewpoint
ff = wind speed
dd = wind direction
ppp = reduced air pressure
vv = visibility
sd = sunshine duration

Next stations